Starlink 30414

operational
NORAD ID: 57859 Int'l Des: 2023-141 Owner: SPXS Country: US Constellation: starlink
LEOCIRCULAR

关于 Starlink 30414

正在加载描述...

实时位置

正在加载3D地球...

即将过境

高度历史

Altitude vs Time

uPlot chart will show altitude changes over time

两行轨道根数

1 57859U 23141V 25257.55165830 -.00000073 00000-0 96743-5 0 9994
2 57859 53.1627 22.0402 0001515 78.8856 281.2315 15.30192260113369
Epoch: Sep 14, 2025 • Age: 21 hours

当前状态

高度 484.5 km
速度 7.62 km/s
星下点 -28.32°S, 68.57°E
发射日期 Sep 12, 2023
运行时间 2 years
类型 internet

技术详情

分类 Payload
质量 730.00 kg
干质量 700.00 kg
总质量 730.00 kg
长度 0.30 m
直径 4.10 m
跨度 29.00 m
形状 Box + pan
制造商 SPXS
平台类型 Starlink V2M
阶段状态 In Orbit
所有者/国家 SPXS/US

大型星座

Loading constellations...